Weather History for KPVB - January, 2013

Change the Weather History Date:

Thursday, January 24, 2013

  Actual Average (KDBQ) Record (KDBQ)
Temperature  
Mean Temperature 10 °F 19 °F  
Max Temperature 19 °F 27 °F 59 °F (1967)
Min Temperature 1 °F 11 °F -19 °F (1936)
Degree Days  
Heating Degree Days 55 46  
Month to date heating degree days 1104  
Since 1 July heating degree days 3914  
Cooling Degree Days 0 0  
Month to date cooling degree days 0  
Year to date cooling degree days 0  
Moisture  
Dew Point -2 °F    
Average Humidity 61    
Maximum Humidity 68    
Minimum Humidity 53    
Precipitation  
Precipitation 0.00 in 0.04 in 0.73 in (1938)
Month to date precipitation 0.89  
Year to date precipitation 0.89  
Snow  
Snow 0.00 in 0.30 in - ()
Month to date snowfall 7.6  
Since 1 July snowfall 22.2  
Snow Depth -    
Sea Level Pressure  
Sea Level Pressure 30.48 in    
Wind  
Wind Speed 9 mph (ENE)    
Max Wind Speed 13 mph    
Max Gust Speed 20 mph    
Visibility 10 miles    
Events      
T = Trace of Precipitation, MM = Missing Value Source: NWS Daily Summary

Daily Weather History Graph

Daily Weather History Graph

Search for Another Location

Airport or City:

Trip Planner

Search our weather history database for the weather conditions in past years. The results will help you decide how hot, cold, wet, or windy it might be!

Date:

Astronomy

Jan. 24, 2013 Rise Set
Actual Time 7:23 AM CST 5:05 PM CST
Civil Twilight 6:52 AM CST 5:35 PM CST
Nautical Twilight 6:18 AM CST 6:09 PM CST
Astronomical Twilight 5:45 AM CST 6:43 PM CST
Moon 3:06 PM CST (1/24) 5:21 AM CST (1/24)
Length of Visible Light 10h 42m
Length of Day
9h 41m
Waxing Gibbous, 94% of the Moon is Illuminated
Jan 24
Waxing Gibbous
Jan 26
Full
Feb 3
Last Quarter
Feb 10
New
Feb 17
First Quarter

Hourly Weather History & Observations

Time (CST) Temp. Windchill Dew Point Humidity Pressure Visibility Wind Dir Wind Speed Gust Speed Precip Events Conditions
12:15 AM 5.0 °F -9.1 °F -7.6 °F 56% 30.45 in 10.0 mi North 9.2 mph - N/A   Clear
12:35 AM 3.2 °F -12.2 °F -7.6 °F 61% 30.46 in 10.0 mi North 10.4 mph 19.6 mph N/A   Clear
12:55 AM 3.2 °F -13.1 °F -7.6 °F 61% 30.48 in 10.0 mi NNW 11.5 mph 16.1 mph N/A   Clear
1:15 AM 3.2 °F -13.9 °F -7.6 °F 61% 30.48 in 10.0 mi North 12.7 mph - N/A   Clear
1:35 AM 3.2 °F -13.1 °F -7.6 °F 61% 30.50 in 10.0 mi North 11.5 mph 16.1 mph N/A   Clear
1:55 AM 3.2 °F -11.3 °F -7.6 °F 61% 30.51 in 10.0 mi NNW 9.2 mph - N/A   Clear
2:15 AM 1.4 °F -15.3 °F -7.6 °F 66% 30.51 in 10.0 mi North 11.5 mph - N/A   Clear
2:35 AM 1.4 °F -15.3 °F -7.6 °F 66% 30.51 in 10.0 mi North 11.5 mph - N/A   Clear
2:55 AM 1.4 °F -15.3 °F -7.6 °F 66% 30.53 in 10.0 mi North 11.5 mph - N/A   Clear
3:15 AM 1.4 °F -14.5 °F -7.6 °F 66% 30.53 in 10.0 mi NNW 10.4 mph - N/A   Clear
3:35 AM 1.4 °F -13.5 °F -9.4 °F 61% 30.55 in 10.0 mi NNW 9.2 mph - N/A   Clear
3:55 AM 1.4 °F -14.5 °F -7.6 °F 66% 30.55 in 10.0 mi North 10.4 mph - N/A   Clear
4:15 AM 1.4 °F -12.5 °F -7.6 °F 66% 30.56 in 10.0 mi NNW 8.1 mph - N/A   Clear
4:55 AM 1.4 °F -15.3 °F -7.6 °F 66% 30.57 in 10.0 mi North 11.5 mph - N/A   Clear
5:15 AM 1.4 °F -13.5 °F -7.6 °F 66% 30.56 in 10.0 mi North 9.2 mph - N/A   Clear
5:35 AM 1.4 °F -14.5 °F -7.6 °F 66% 30.58 in 10.0 mi NNW 10.4 mph - N/A   Clear
6:15 AM 1.4 °F -14.5 °F -7.6 °F 66% 30.57 in 10.0 mi North 10.4 mph - N/A   Clear
6:35 AM 1.4 °F -15.3 °F -7.6 °F 66% 30.57 in 10.0 mi North 11.5 mph - N/A   Clear
6:55 AM 1.4 °F -14.5 °F -7.6 °F 66% 30.57 in 10.0 mi North 10.4 mph - N/A   Clear
7:15 AM 1.4 °F -11.3 °F -7.6 °F 66% 30.58 in 10.0 mi North 6.9 mph - N/A   Clear
7:35 AM 1.4 °F -13.5 °F -7.6 °F 66% 30.59 in 10.0 mi North 9.2 mph - N/A   Clear
7:55 AM 1.4 °F -9.9 °F -7.6 °F 66% 30.61 in 10.0 mi North 5.8 mph - N/A   Clear
8:15 AM 3.2 °F -11.3 °F -5.8 °F 66% 30.61 in 10.0 mi North 9.2 mph - N/A   Clear
8:35 AM 3.2 °F -11.3 °F -5.8 °F 66% 30.61 in 10.0 mi NNE 9.2 mph - N/A   Clear
8:55 AM 3.2 °F -9.1 °F -5.8 °F 66% 30.62 in 10.0 mi NNE 6.9 mph - N/A   Clear
9:15 AM 3.2 °F -9.1 °F -5.8 °F 66% 30.62 in 10.0 mi NE 6.9 mph - N/A   Clear
9:35 AM 5.0 °F -8.1 °F -5.8 °F 61% 30.61 in 10.0 mi NE 8.1 mph - N/A   Clear
9:55 AM 5.0 °F -5.6 °F -5.8 °F 61% 30.61 in 10.0 mi NE 5.8 mph - N/A   Clear
10:15 AM 6.8 °F -4.8 °F -4.0 °F 61% 30.61 in 10.0 mi ENE 6.9 mph - N/A   Clear
10:35 AM 8.6 °F -4.7 °F -4.0 °F 57% 30.60 in 10.0 mi East 9.2 mph - N/A   Clear
10:55 AM 8.6 °F -2.6 °F -4.0 °F 57% 30.61 in 10.0 mi East 6.9 mph - N/A   Clear
11:15 AM 8.6 °F -2.6 °F -4.0 °F 57% 30.60 in 10.0 mi East 6.9 mph - N/A   Clear
11:35 AM 8.6 °F -2.6 °F -4.0 °F 57% 30.58 in 10.0 mi East 6.9 mph - N/A   Clear
11:55 AM 10.4 °F -2.4 °F -2.2 °F 57% 30.57 in 10.0 mi East 9.2 mph - N/A   Clear
12:15 PM 10.4 °F -0.4 °F -2.2 °F 57% 30.56 in 10.0 mi East 6.9 mph - N/A   Clear
12:35 PM 10.4 °F -0.4 °F -0.4 °F 62% 30.56 in 10.0 mi East 6.9 mph - N/A   Clear
12:55 PM 10.4 °F 4.0 °F -0.4 °F 62% 30.55 in 10.0 mi ESE 3.5 mph - N/A   Clear
1:15 PM 12.2 °F 4.3 °F -0.4 °F 57% 30.53 in 10.0 mi ESE 4.6 mph - N/A   Clear
1:35 PM 12.2 °F 6.1 °F -0.4 °F 57% 30.52 in 10.0 mi East 3.5 mph - N/A   Clear
1:55 PM 12.2 °F 6.1 °F -0.4 °F 57% 30.52 in 10.0 mi SSE 3.5 mph - N/A   Clear
2:15 PM 12.2 °F 4.3 °F -0.4 °F 57% 30.51 in 10.0 mi ESE 4.6 mph - N/A   Clear
2:35 PM 14.0 °F 5.1 °F -0.4 °F 53% 30.50 in 10.0 mi SE 5.8 mph - N/A   Clear
2:55 PM 14.0 °F 6.5 °F -0.4 °F 53% 30.49 in 10.0 mi ESE 4.6 mph - N/A   Clear
3:15 PM 14.0 °F 6.5 °F 1.4 °F 57% 30.48 in 10.0 mi East 4.6 mph - N/A   Clear
3:35 PM 14.0 °F 5.1 °F 1.4 °F 57% 30.47 in 10.0 mi SE 5.8 mph - N/A   Clear
3:55 PM 14.0 °F 8.2 °F 1.4 °F 57% 30.47 in 10.0 mi ESE 3.5 mph - N/A   Clear
4:15 PM 14.0 °F 5.1 °F 1.4 °F 57% 30.46 in 10.0 mi ESE 5.8 mph - N/A   Clear
4:35 PM 14.0 °F 2.0 °F 1.4 °F 57% 30.44 in 10.0 mi ESE 9.2 mph - N/A   Clear
4:55 PM 15.8 °F 5.1 °F 1.4 °F 53% 30.43 in 10.0 mi ESE 8.1 mph - N/A   Clear
5:15 PM 15.8 °F 3.4 °F 3.2 °F 58% 30.42 in 10.0 mi East 10.4 mph - N/A   Clear
5:35 PM 14.0 °F 1.2 °F 1.4 °F 57% 30.41 in 10.0 mi East 10.4 mph - N/A   Clear
5:55 PM 14.0 °F 1.2 °F 1.4 °F 57% 30.40 in 10.0 mi East 10.4 mph - N/A   Clear
6:15 PM 14.0 °F 2.0 °F 3.2 °F 62% 30.40 in 10.0 mi East 9.2 mph - N/A   Clear
6:35 PM 14.0 °F 3.9 °F 3.2 °F 62% 30.40 in 10.0 mi ESE 6.9 mph - N/A   Clear
6:55 PM 14.0 °F 3.9 °F 3.2 °F 62% 30.39 in 10.0 mi ESE 6.9 mph - N/A   Clear
7:15 PM 15.8 °F 5.1 °F 3.2 °F 58% 30.39 in 10.0 mi East 8.1 mph - N/A   Clear
7:35 PM 14.0 °F 2.9 °F 3.2 °F 62% 30.37 in 10.0 mi East 8.1 mph - N/A   Clear
7:55 PM 15.8 °F 6.1 °F 5.0 °F 62% 30.37 in 10.0 mi East 6.9 mph - N/A   Clear
8:15 PM 15.8 °F 5.1 °F 5.0 °F 62% 30.36 in 10.0 mi East 8.1 mph - N/A   Clear
8:35 PM 15.8 °F 6.1 °F 5.0 °F 62% 30.35 in 10.0 mi East 6.9 mph - N/A   Clear
8:55 PM 15.8 °F 4.2 °F 5.0 °F 62% 30.34 in 10.0 mi East 9.2 mph - N/A   Scattered Clouds
9:15 PM 15.8 °F 4.2 °F 5.0 °F 62% 30.31 in 10.0 mi ESE 9.2 mph - N/A   Mostly Cloudy
9:35 PM 17.6 °F 7.3 °F 6.8 °F 63% 30.30 in 10.0 mi ESE 8.1 mph - N/A   Overcast
9:55 PM 17.6 °F 8.2 °F 6.8 °F 63% 30.30 in 10.0 mi ESE 6.9 mph - N/A   Mostly Cloudy
10:15 PM 17.6 °F 6.4 °F 8.6 °F 68% 30.29 in 10.0 mi SE 9.2 mph - N/A   Mostly Cloudy
10:35 PM 19.4 °F 9.5 °F 8.6 °F 63% 30.29 in 10.0 mi SE 8.1 mph - N/A   Overcast
10:55 PM 19.4 °F 6.6 °F 8.6 °F 63% 30.28 in 10.0 mi SE 12.7 mph - N/A   Overcast
11:15 PM 19.4 °F 8.6 °F 8.6 °F 63% 30.29 in 10.0 mi SE 9.2 mph - N/A   Overcast
11:35 PM 19.4 °F 7.9 °F 8.6 °F 63% 30.29 in 10.0 mi SSE 10.4 mph - N/A   Overcast
11:55 PM 19.4 °F 6.6 °F 8.6 °F 63% 30.26 in 10.0 mi SSE 12.7 mph - N/A   Overcast